Moose, Wyoming, United States (83012)
Lat: 43.66N, Lon: 110.72W
Wx Zone: WYZ013
Local Info
Past Weather Observations for Wednesday, July 27, 2016

NOTE: This archive is for the closest National Weather Service station to Moose. Information may differ from the station used for current weather conditions.

Click here for Long-term Archive

Time Weather Temperature Dewpoint Humidity Pressure Winds Precip Visibility
23:55
Clear
57°F / 14°C 30°F / -1°C 36% 30.24 in
(1024 mb)
NNE 10.4 mph
(NNE 17 kph)
- 10SM
23:35
Clear
54°F / 12°C 34°F / 1°C 47% 30.24 in
(1024 mb)
NNE 5.8 mph
(NNE 9 kph)
- 10SM
23:15
Clear
55°F / 13°C 34°F / 1°C 44% 30.24 in
(1024 mb)
NE 3.5 mph
(NE 6 kph)
- 10SM
22:55
Clear
52°F / 11°C 34°F / 1°C 50% 30.24 in
(1024 mb)
N 6.9 mph
(N 11 kph)
- 10SM
22:35
Clear
57°F / 14°C 36°F / 2°C 44% 30.24 in
(1024 mb)
NNE 10.4 mph
(NNE 17 kph)
- 10SM
22:15
Clear
54°F / 12°C 34°F / 1°C 47% 30.24 in
(1024 mb)
NNW 3.5 mph
(NNW 6 kph)
- 10SM
21:55
Clear
57°F / 14°C 34°F / 1°C 41% 30.24 in
(1024 mb)
NE 3.5 mph
(NE 6 kph)
- 10SM
21:35
Clear
59°F / 15°C 37°F / 3°C 45% 30.24 in
(1024 mb)
Calm - 10SM
20:55
Clear
68°F / 20°C 28°F / -2°C 23% 30.24 in
(1024 mb)
E 5.8 mph
(E 9 kph)
- 10SM
20:35
Clear
70°F / 21°C 27°F / -3°C 20% 30.24 in
(1024 mb)
E 3.5 mph
(E 6 kph)
- 10SM
20:15
Clear
66°F / 19°C 32°F / 0°C 28% 30.24 in
(1024 mb)
Calm - 10SM
19:55
Clear
73°F / 23°C 28°F / -2°C 19% 30.21 in
(1023 mb)
W 8.1 mph
(W 13 kph)
- 10SM
18:45
Clear
82°F / 28°C 27°F / -3°C 13% 30.21 in
(1023 mb)
SW 6.9 mph
(SW 11 kph)
- 10SM
17:55
Clear
84°F / 29°C 27°F / -3°C 12% 30.21 in
(1023 mb)
SSW 12.7 mph
(SSW 20 kph)
- 10SM
16:45
Clear
84°F / 29°C 30°F / -1°C 14% 30.24 in
(1024 mb)
SSW 11.5 mph
(SSW 19 kph)
-
15:51
Clear
86°F / 30°C 30°F / -1°C 13% 30.24 in
(1024 mb)
SW 11.5 mph
(SW 19 kph)
- 10SM
14:51
Partly Cloudy
86°F / 30°C 30°F / -1°C 13% 30.24 in
(1024 mb)
SSW 16.1 mph
(SSW 26 kph)
- 10SM
13:49
Clear
84°F / 29°C 32°F / 0°C 15% 30.27 in
(1025 mb)
SW 10.4 mph
(SW 17 kph)
- 10SM
12:51
Clear
82°F / 28°C 30°F / -1°C 15% 30.27 in
(1025 mb)
SSE 5.8 mph
(SSE 9 kph)
- 10SM
11:51
Clear
81°F / 27°C 39°F / 4°C 23% 30.3 in
(1026 mb)
S 5.8 mph
(S 9 kph)
- 10SM
10:59
Clear
Smoke
75°F / 24°C 37°F / 3°C 25% 30.3 in
(1026 mb)
Calm - 10SM
09:58
Clear
Smoke
72°F / 22°C 37°F / 3°C 29% 30.3 in
(1026 mb)
Calm - 10SM
08:46
Clear
Smoke
64°F / 18°C 36°F / 2°C 34% 30.33 in
(1027 mb)
Calm - 6SM
07:52
Clear
Smoke
57°F / 14°C 36°F / 2°C 44% 30.33 in
(1027 mb)
Calm - 10SM
06:50
Clear
Smoke
52°F / 11°C 37°F / 3°C 58% 30.33 in
(1027 mb)
Calm - 10SM
05:45
Clear
46°F / 8°C 37°F / 3°C 71% 30.3 in
(1026 mb)
Calm - 10SM
05:35
Clear
48°F / 9°C 36°F / 2°C 62% 30.3 in
(1026 mb)
N 3.5 mph
(N 6 kph)
- 10SM
05:15
Clear
48°F / 9°C 36°F / 2°C 62% 30.3 in
(1026 mb)
Calm - 10SM
04:55
Clear
48°F / 9°C 36°F / 2°C 62% 30.3 in
(1026 mb)
Calm - 10SM
04:35
Clear
50°F / 10°C 36°F / 2°C 58% 30.3 in
(1026 mb)
Calm - 10SM
04:15
Clear
48°F / 9°C 36°F / 2°C 62% 30.27 in
(1025 mb)
N 4.6 mph
(N 7 kph)
- 10SM
03:55
Clear
48°F / 9°C 36°F / 2°C 62% 30.27 in
(1025 mb)
NNE 6.9 mph
(NNE 11 kph)
- 10SM
03:35
Clear
48°F / 9°C 36°F / 2°C 62% 30.27 in
(1025 mb)
NNE 6.9 mph
(NNE 11 kph)
- 10SM
03:15
Clear
48°F / 9°C 36°F / 2°C 62% 30.27 in
(1025 mb)
NNE 5.8 mph
(NNE 9 kph)
- 10SM
02:55
Clear
50°F / 10°C 36°F / 2°C 58% 30.27 in
(1025 mb)
N 4.6 mph
(N 7 kph)
- 10SM
02:35
Clear
54°F / 12°C 36°F / 2°C 51% 30.27 in
(1025 mb)
NNE 6.9 mph
(NNE 11 kph)
- 10SM
02:15
Clear
54°F / 12°C 37°F / 3°C 54% 30.24 in
(1024 mb)
NNE 9.2 mph
(NNE 15 kph)
- 10SM
01:55
Clear
54°F / 12°C 36°F / 2°C 51% 30.24 in
(1024 mb)
NE 5.8 mph
(NE 9 kph)
- 10SM
01:35
Clear
54°F / 12°C 36°F / 2°C 51% 30.24 in
(1024 mb)
NE 4.6 mph
(NE 7 kph)
- 10SM
01:15
Clear
55°F / 13°C 36°F / 2°C 47% 30.24 in
(1024 mb)
ENE 4.6 mph
(ENE 7 kph)
- 10SM
00:55
Clear
57°F / 14°C 36°F / 2°C 44% 30.24 in
(1024 mb)
NNE 5.8 mph
(NNE 9 kph)
- 10SM
00:35
Clear
57°F / 14°C 36°F / 2°C 44% 30.27 in
(1025 mb)
ENE 4.6 mph
(ENE 7 kph)
- 10SM
00:15
Clear
59°F / 15°C 36°F / 2°C 42% 30.24 in
(1024 mb)
N 10.4 mph
(N 17 kph)
- 10SM
Time Weather Temperature Dewpoint Humidity Pressure Winds Precip Visibility


Weather for websites

WeatherForYou.com, LLC is not responsible for any damages or problems caused by this service. Current weather conditions are obtained from the closest station including government and personal stations which may have varying degrees of accuracy. Weather forecasts are derived from the NOAA NDFD. Like all things, this site belongs to Jesus Christ... He just trusts us to maintain it. If you have any questions or comments email webmaster@weatherforyou.com

Copyright © 2016, WeatherForYou.com LLC. All rights reserved.